Location: Wald
(31.7579°N, 86.6655°W)
Time: 21:15:52
(UTC+00:00)

Milstar 3 - Pass Details

Date: 14 July 2020
Orbit: 1101 x 5144 km, 28.2° (Epoch: 13 July)

Event Time Altitude Azimuth Distance (km) Brightness Sun altitude
Rises 01:33:55 0° 272° (W) 4,408 7.1 -8.3°
Reaches altitude 10° 01:36:19 10° 270° (W) 3,656 6.5 -8.7°
Maximum altitude 01:45:44 71° 188° (S) 2,286 4.3 -10.4°
Enters shadow 02:03:26 12° 109° (ESE) 6,507 6.1 -13.5°
